Location: Kalberh�ni
(46.4610°N, 7.2453°E)
Time: 04:52:55
(UTC+00:00)

Cosmos 1802 Rocket - Pass Details

Date: 01 November 2021
Orbit: 955 x 1010 km, 82.9° (Epoch: 05 December)

Event Time Altitude Azimuth Distance (km) Brightness Sun altitude
Rises 05:04:12 0° 353° (N) 3,698 6.9 -12.2°
Reaches altitude 10° 05:06:45 10° 356° (N) 2,754 6.2 -11.8°
Maximum altitude 05:13:03 66° 79° (E) 1,083 4.5 -10.7°
Drops below altitude 10° 05:19:22 10° 161° (SSE) 2,770 6.8 -9.7°
Sets 05:21:56 0° 164° (SSE) 3,721 7.4 -9.2°
